Location: Doln� Tureck�
(48.8491°N, 19.0860°E)
Time: 22:04:41
(UTC+00:00)

Daily predictions for brighter satellites

Satellite Brightness Start Highest point End
(mag) Time Altitude Azimuth Time Altitude Azimuth Time Altitude Azimuth
Cosmos 1634 Rocket 4.1 15:10:29 10° N 15:16:41 88° W 15:22:54 10° S
Meteor 1-5 Rocket 4.5 15:13:35 10° N 15:18:55 43° ENE 15:24:03 10° SE
BREEZE-M DEB (TANK) 4.5 15:16:53 10° W 15:21:07 87° N 15:37:43 10° E
BREEZE-M DEB (TANK) 2.9 15:14:42 10° W 15:23:39 90° ESE 15:26:39 10° E
CZ-4B R/B 2.1 15:20:27 10° N 15:23:56 60° WNW 15:27:22 10° SSW
Meteor 1-28 Rocket 4.1 15:22:55 10° N 15:26:33 49° WNW 15:30:12 10° SSW
FENGYUN 3A 4.3 15:24:54 10° S 15:30:17 64° WSW 15:35:42 10° NNW
Shenzhou-11 Module 3.9 15:28:16 10° SW 15:30:29 22° S 15:32:41 10° ESE
Lacrosse 5 rocket 2.2 15:27:56 10° SSW 15:31:56 37° SE 15:35:44 10° ENE
Cosmos 2333 4.3 15:26:38 10° SSW 15:32:21 85° ESE 15:38:11 10° NNE
STARLINK-46 3.1 15:30:55 10° SW 15:33:28 44° SSE 15:35:54 11° ENE
CZ-4B R/B 3.5 15:28:13 10° S 15:33:32 72° WSW 15:38:58 10° NNW
Iridium 82 4.5 15:31:54 10° S 15:35:26 89° E 15:39:02 10° N
COSMO-SKYMED 1 4.4 15:34:31 10° ENE 15:36:29 13° E 15:38:27 10° ESE
CZ-4 R/B 3.0 15:34:36 10° E 15:36:32 13° ENE 15:38:26 10° NNE
Cosmos 2322 3.9 15:32:02 10° SSW 15:37:45 78° WNW 15:43:29 10° NNE
SL-4 R/B 1.9 15:36:10 10° WSW 15:39:50 74° SSE 15:43:33 12° ENE
PSLV R/B 4.1 15:37:08 10° NNE 15:41:13 52° E 15:45:14 10° S
Cosmos 1666 3.9 15:40:10 10° NNE 15:43:02 20° ENE 15:45:52 10° ESE
Cosmos 2278 Rocket 2.2 15:37:53 10° NNW 15:43:34 65° ENE 15:49:10 10° SE
YAOGAN 1 4.1 15:44:04 10° E 15:46:42 16° ENE 15:49:20 10° NNE
Meteor 2-6 Rocket 4.1 15:42:49 10° S 15:48:11 76° E 15:53:37 10° NNE
Cosmos 2360 Rocket 3.3 15:44:02 10° WSW 15:49:24 42° NW 15:54:48 10° NNE
Cosmos 1782 3.8 15:45:52 10° SSW 15:49:45 49° WNW 15:53:38 10° N
ATLAS 2AS CENTAUR R/B 3.5 15:43:56 10° WSW 15:51:51 61° NW 15:59:45 10° NE
Cosmos 1346 Rocket 4.1 15:48:26 10° NNW 15:52:14 44° W 15:56:02 10° SSW
Cosmos 2369 Rocket 3.8 15:53:15 10° N 15:56:25 15° NNE 15:58:05 13° NE
Cosmos 1733 Rocket 3.0 15:52:52 10° N 15:57:16 78° E 16:01:40 10° SSE
Cosmos 1980 Rocket 4.5 15:55:26 10° NW 15:57:20 12° NNW 15:59:13 10° N
Cosmos 1315 Rocket 3.6 15:53:33 10° SSW 15:57:28 53° WNW 16:01:27 10° N
SL-16 R/B 3.7 15:56:57 10° SE 16:00:28 17° E 16:02:06 15° ENE
Cosmos 1689 Rocket 3.9 15:58:18 10° N 16:01:03 31° WNW 16:03:46 10° SW
COSMOS 2455 4.4 15:58:40 10° W 16:03:41 27° NW 16:08:44 10° NNE
SeaSat 1 4.1 16:05:25 14° NE 16:06:03 14° NE 16:08:34 10° N
NOAA 12 4.1 16:00:54 10° SSE 16:06:07 61° ENE 16:11:20 10° N
Cosmos 2333 Rocket 2.4 16:00:58 10° SSW 16:06:43 77° WNW 16:12:32 10° NNE
Meteor 1-10 Rocket 4.2 16:01:36 10° S 16:07:09 87° WNW 16:12:49 10° NNE
Cosmos 2237 Rocket 2.5 16:05:47 10° S 16:11:14 50° ESE 16:15:51 15° NE
Cosmos 2322 Rocket 4.3 16:11:58 10° W 16:15:58 19° NW 16:19:59 10° N
Cosmos 1812 2.6 16:14:42 10° S 16:18:34 88° E 16:22:28 10° N
USA 215 3.4 16:15:07 17° NE 16:20:22 70° NNW 16:26:52 10° WSW
NOSS 0 Rocket 3.9 16:14:24 10° SSW 16:20:35 72° ESE 16:26:04 14° NE
Meteor 1-11 Rocket 4.1 16:14:43 10° NNW 16:20:43 77° W 16:26:39 10° S
CORIOLIS 4.3 16:17:16 10° SSE 16:22:43 79° WSW 16:28:13 10° NNW
Sich 1 Rocket 4.4 16:19:39 10° N 16:23:28 28° ENE 16:27:14 10° SE
SL-16 R/B 4.4 16:20:12 10° WNW 16:23:43 16° NW 16:27:16 10° N
Cosmos 921 Rocket 3.5 16:20:08 10° N 16:24:03 34° ENE 16:27:12 14° ESE
SKYMED 2 4.1 16:22:53 22° NE 16:25:06 36° E 16:29:05 10° SSE
Cosmos 2251 Rocket 3.5 16:20:08 10° SSW 16:25:27 84° ESE 16:30:19 12° NNE
Cosmos 2219 Rocket 2.7 16:19:59 10° SW 16:25:31 58° WNW 16:31:07 10° NNE
Meteor 1-27 Rocket 3.7 16:20:28 10° S 16:26:13 84° E 16:32:07 10° NNE
Cosmos 1782 Rocket 4.0 16:22:50 10° N 16:26:55 37° ENE 16:30:57 10° SE
Exosat Rocket 3.4 16:22:07 10° SSW 16:27:24 87° ESE 16:31:43 14° NNE
Cosmos 1500 4.3 16:30:39 10° NNW 16:34:16 44° W 16:37:50 10° SSW
YAOGAN 6 2.5 16:31:08 10° SSE 16:34:36 58° ENE 16:38:09 10° N
RESURS DK-1 3.2 16:31:35 10° SW 16:35:34 46° NW 16:38:36 16° NNE
Cosmos 1862 Rocket 3.9 16:32:34 10° SSW 16:36:54 66° WNW 16:41:17 10° N
Cosmos 1092 Rocket 3.9 16:31:56 10° S 16:38:09 67° E 16:44:23 10° NNE
Cosmos 1943 Rocket 3.1 16:34:27 10° NNW 16:39:15 27° NE 16:39:37 27° NE
Cosmos 1703 Rocket 3.7 16:35:27 10° S 16:39:46 51° E 16:42:08 25° NNE
Envisat 3.0 16:35:45 10° SSE 16:40:49 84° WSW 16:45:58 10° NNW
Cosmos 1980 3.6 16:36:20 10° SSW 16:41:59 87° ESE 16:46:07 19° NNE
SMAP 4.4 16:37:42 10° S 16:42:07 42° W 16:46:34 10° NNW
ISS -1.7 16:39:32 10° W 16:42:26 27° SW 16:45:20 10° SSE
Cosmos 2242 Rocket 3.6 16:39:10 10° S 16:43:44 87° W 16:48:21 10° N
NOSS 5 (C) 4.5 16:40:40 10° NW 16:43:53 86° SW 16:46:41 19° SE
Cosmos 2297 3.6 16:40:33 10° NNW 16:46:16 65° ENE 16:51:53 10° SE
CSL-04 Rocket 3.6 16:42:42 10° SSE 16:47:51 57° ENE 16:53:03 10° N
Cosmos 1441 Rocket 3.0 16:46:50 10° N 16:50:42 74° ENE 16:54:28 10° SSE
Cosmos 407 Rocket 3.9 16:46:08 10° S 16:50:52 38° ESE 16:51:16 37° E
STARLINK-60 3.7 16:48:01 10° SW 16:51:03 41° SSE 16:51:03 41° SSE
STARLINK-67 4.1 16:49:09 10° WNW 16:51:04 28° NNW 16:51:04 28° NNW
Okean-O 3.4 16:48:42 10° S 16:53:02 54° W 16:57:25 10° NNW
Cosmos 1536 4.0 16:51:56 10° NNW 16:55:46 43° W 16:59:33 10° SSW
Cosmos 1867 3.7 16:53:24 10° NNW 16:58:45 51° NE 16:59:53 44° E
COSMOS 2428 4.0 16:54:26 10° WSW 16:59:40 37° NW 17:04:21 13° NNE
BREEZE-M R/B 2.4 16:55:41 10° W 17:00:39 80° N 17:00:45 79° NE
USA 229 DEB 4.4 16:54:54 10° NW 17:01:31 39° NNE 17:03:19 34° ENE
USA 229 4.4 16:55:01 10° NW 17:01:37 39° NNE 17:03:23 34° ENE
CSL-04 Debris 4.0 16:57:22 10° SSE 17:02:49 77° ENE 17:08:16 10° NNW
Shenzhou-11 Module 4.2 17:03:09 10° WSW 17:04:48 18° SSW 17:04:48 18° SSW
Cosmos 292 Rocket 4.4 17:01:57 10° NNW 17:06:44 57° WSW 17:11:29 10° S
S3M 4.1 17:01:53 10° N 17:07:55 48° ENE 17:11:07 26° SE
Lacrosse 5 rocket 1.8 17:06:56 10° WSW 17:11:03 50° NNW 17:11:25 48° N
CZ-4 R/B 1.5 17:07:10 10° S 17:11:04 69° WSW 17:14:57 10° NNW
COSMO-SKYMED 1 2.6 17:11:25 35° N 17:13:12 77° WNW 17:17:32 10° SSW
Genesis I 3.3 17:09:27 10° NW 17:13:20 70° SW 17:13:36 67° SSW
Aureole 1 Rocket 3.6 17:12:05 10° SSW 17:13:53 34° SW 17:13:53 34° SW
USA 116 4.3 17:13:16 36° NNE 17:15:30 75° ESE 17:20:39 10° S
Meteor 2-9 Rocket 4.3 17:11:07 10° N 17:16:56 58° ENE 17:18:26 45° SE
Cosmos 1666 4.3 17:15:19 10° NNW 17:18:43 33° W 17:22:06 10° SSW
SL-4 R/B 2.4 17:15:49 10° W 17:19:09 53° NW 17:19:09 53° NW
Okean 1 4.5 17:15:53 10° S 17:18:07 32° S 17:18:07 32° S
Cosmos 1428 Rocket 4.4 17:15:10 10° S 17:21:21 87° E 17:27:37 10° N
Cosmos 1553 Rocket 3.9 17:15:18 10° N 17:21:41 77° E 17:28:06 10° SSE
YAOGAN 1 2.8 17:17:59 10° S 17:22:18 70° WSW 17:26:39 10° NNW
Ariane Rocket 4.2 17:26:19 29° N 17:26:19 29° N 17:28:53 10° N
NOAA 11 4.1 17:18:55 10° SSE 17:24:23 86° ENE 17:29:54 10° NNW
Okean 1-7 3.6 17:27:48 10° SSW 17:32:04 56° WNW 17:32:59 46° NNW
Cosmos 2344 4.3 17:27:44 10° NW 17:36:39 57° NE 17:40:04 44° E
Cosmos 2026 Rocket 4.3 17:33:01 10° SSW 17:39:01 64° WNW 17:45:04 10° N
Cosmos 489 Rocket 4.4 17:33:58 10° NNW 17:40:22 90° NE 17:42:36 44° SSE
Cosmos 2369 Rocket 3.0 17:36:14 10° NNW 17:39:54 38° N 17:39:54 38° N
SeaSat 1 3.9 17:45:12 27° N 17:45:12 27° N 17:47:29 10° NNW
Cosmos 1190 Rocket 4.2 17:37:54 10° SSW 17:42:13 62° SSW 17:42:13 62° SSW
SL-16 R/B 2.1 17:38:06 10° SSW 17:43:48 86° WNW 17:44:01 83° N
Centaur D-1A AC-31 4.5 17:41:09 10° S 17:44:15 13° SSE 17:45:42 13° SSE
ATLAS 2AS CENTAUR R/B 4.2 17:37:32 10° WNW 17:44:29 30° NNW 17:47:24 24° NNE
Cosmos 2333 Rocket 4.4 17:47:53 10° W 17:52:00 20° NW 17:54:57 14° N
Cosmos 2237 Rocket 3.6 17:50:22 10° WSW 17:55:31 34° NW 17:57:42 26° N
USA 215 3.8 18:02:28 44° N 18:02:55 45° N 18:09:02 10° WNW
Cosmos 1655 Rocket 4.1 18:00:36 10° SSW 18:06:27 74° SW 18:06:27 74° SW
Cosmos 2219 Rocket 4.5 18:07:26 10° WNW 18:10:46 16° NNW 18:12:51 13° N
Cosmos 1943 Rocket 3.4 18:17:52 10° NNW 18:21:11 36° NW 18:21:11 36° NW
NOSS 3-1 (C) 4.4 18:37:38 10° NW 18:43:13 58° NW 18:43:13 58° NW
